Hourly Data Report for May 24, 2012

All times are specified in Local Standard Time (LST). Add 1 hour to adjust for Daylight Saving Time where and when it is observed.

DEER LAKE A
NEWFOUNDLAND

49°12'33.000" N
57°23'40.000" W
21.90 m
8401502
71809
YDF

Download Data

Hourly Data (May 2012)
Hourly Data Report for May 24, 2012
Temp Definition
°C
Dew Point Temp Definition
°C
Rel Hum Definition
%
Wind Dir Definition
10's deg

Wind Spd Definition
km/h
Visibility Definition
km
Stn Press Definition
kPa
Hmdx Definition


Wind Chill Definition


Weather Definition


TIME
00:30 Legend Double Dagger 4.9 3.9 93 2 13 10.0 101.73     LegendNANA
01:30 Legend Double Dagger 4.6 3.7 94 4 8 10.0 101.79     LegendNANA
02:30 Legend Double Dagger 4.7 3.7 93 3 6 10.0 101.80     Cloudy
03:30 Legend Double Dagger 4.7 3.5 92 5 8 10.0 101.88     LegendNANA
04:30 Legend Double Dagger 4.7 3.7 93 5 7 10.0 102.00     LegendNANA
05:30 Legend Double Dagger 4.9 2.9 87 3 6 10.0 102.08     Mostly Cloudy
06:30 Legend Double Dagger 5.3 2.1 80 6 5 10.0 102.14     LegendNANA
07:30 Legend Double Dagger 5.8 2.6 80   0 10.0 102.18     LegendNANA
08:30 Legend Double Dagger 7.0 3.8 80 26 6 10.0 102.23     Mostly Cloudy
09:30 Legend Double Dagger 8.4 3.5 71 26 4 10.0 102.25     LegendNANA
10:30 Legend Double Dagger 9.9 4.9 71 22 12 10.0 102.29     LegendNANA
11:30 Legend Double Dagger 12.5 5.9 64 22 12 10.0 102.26     Mostly Cloudy
12:30 Legend Double Dagger 13.6 7.0 64 18 7 10.0 102.24     LegendNANA
13:30 Legend Double Dagger 15.1 6.7 57 19 6 10.0 102.23     LegendNANA
14:30 Legend Double Dagger 15.8 6.1 52   0 10.0 102.22     Mainly Clear
15:30 Legend Double Dagger 17.5 5.2 44 25 17 10.0 102.23     LegendNANA
16:30 Legend Double Dagger 17.6 5.0 43 23 17 10.0 102.22     LegendNANA
17:30 Legend Double Dagger 17.0 4.4 43 24 18 10.0 102.20     Mainly Clear
18:30 Legend Double Dagger 15.5 4.0 46 26 15 10.0 102.22     LegendNANA
19:30 Legend Double Dagger 14.3 4.1 50 25 13 10.0 102.26     LegendNANA
20:30 Legend Double Dagger 12.2 4.5 59 27 8 10.0 102.28     Mostly Cloudy
21:30 Legend Double Dagger 11.1 5.2 67 22 7 10.0 102.31     LegendNANA
22:30 Legend Double Dagger 11.3 6.1 70 23 8 10.0 102.31     LegendNANA
23:30 Legend Double Dagger 10.0 6.6 79 23 7 10.0 102.29     Mostly Cloudy

Notes on Data Quality.

Legend

  • E = Estimated
  • M = Missing
  • NA = Not Available
  • ‡ = Partner data that is not subject to review by the National Climate Archives
Date modified: